Regional Weather Roundup
Issued by NWS

Home | Current Version | Previous Version | Graphics & Text | Print | Product List | Glossary On
Versions: 1 2 3 4 5 6 7 8 9 10 11 12 13 14 15 16 17 18 19 20 21 22 23 24 25 26 27 28 29 30 31 32 33 34 35 36 37 38 39 40 41 42 43 44 45 46 47 48 49 50
000
ASUS45 KCYS 212010
RWRWY

WYOMING REGIONAL WEATHER ROUNDUP
NATIONAL WEATHER SERVICE CHEYENNE WY
200 PM MDT MON JUL 21 2014

NOTE:  "FAIR" INDICATES FEW OR NO CLOUDS BELOW 12,000 FEET
WITH NO SIGNIFICANT WEATHER AND/OR OBSTRUCTIONS TO VISIBILITY.

WYZ001-212100-
YELLOWSTONE NATIONAL PARK

CITY           SKY/WX    TMP DP  RH WIND       PRES   REMARKS
LK YELLOWSTONE   N/A     67  44  43 SW9G23    30.29F
W YELLOWSTONE  NOT AVBL

$$
WYZ002>013-054>058-071-098>099-212100-
NORTHERN WYOMING

CITY           SKY/WX    TMP DP  RH WIND       PRES   REMARKS
JACKSON        MOSUNNY   79  43  27 SW15G23   30.19S
CODY           PTSUNNY   84  45  24 SW10G17   30.03S
GREYBULL       PTSUNNY   90  42  18 NW17G31   29.94S
WORLAND        PTSUNNY   92  39  15 N3        29.93F
SHERIDAN       PTSUNNY   85  53  33 N9        29.95S
BUFFALO        MOSUNNY   89  43  20 N10       30.02S
GILLETTE       MOSUNNY   91  46  21 W12       29.97F
HULETT         FAIR      88  48  25 MISG      29.96
NEWCASTLE      FAIR      93  34  12 MISG      29.97

$$
WYZ014>020-022>026-101>103-212100-
CENTRAL WYOMING

CITY           SKY/WX    TMP DP  RH WIND       PRES   REMARKS
BIG PINEY      MOSUNNY   81  38  21 W13       30.26S
PINEDALE       MOCLDY    79  34  19 W18G30    30.25S
DUBOIS         FAIR      79  34  19 NW20G31   30.21F
LANDER         MOSUNNY   89  36  15 W12G18    30.08F
RIVERTON       MOSUNNY   91  33  12 SW16G28   30.07F
CASPER         MOSUNNY   92  34  13 W21G37    30.08S
DOUGLAS        MOSUNNY   90  40  17 W22G35    30.06F

$$
WYZ021-027>030-104>119-212100-
SOUTHERN WYOMING

CITY           SKY/WX    TMP DP  RH WIND       PRES   REMARKS
EVANSTON       MOSUNNY   78  36  21 SW12G26   30.29F
KEMMERER       MOCLDY   N/A N/A N/A SW21G29   30.30S
ROCK SPRINGS   SUNNY     86  32  14 W16G23    30.24F
DIXON          FAIR      89  34  14 SW18      30.27F
RAWLINS        MOSUNNY   87  33  14 W20G25    30.23F
SARATOGA       FAIR      88  30  12 W24G30    30.27F
LARAMIE        MOSUNNY   81  36  19 W12G18    30.27F
CHEYENNE       MOSUNNY   88  39  17 W12G33    30.19S
TORRINGTON     SUNNY     97  42  15 W17G26    30.00F HX  93
PINE BLUFFS    FAIR      95  37  13 W8        30.11F HX  90

$$



USA.gov is the U.S. government's official web portal to all federal, state and local government web resources and services.